Other Public Products
Issued by NWS Grand Forks, ND

Home | Current Version | Previous Version | Graphics & Text | Print | Product List | Glossary On
Versions: 1 2 3 4 5 6 7 8 9 10 11 12 13 14 15 16 17 18 19 20 21 22 23 24 25 26 27 28 29 30 31 32 33 34 35 36 37 38 39 40 41 42 43 44 45 46 47 48 49 50
000
FPUS83 KFGF 230131
OPUFGF
PRAIRIE TO PINES WEATHER ROUNDUP
NATIONAL WEATHER SERVICE EASTERN NORTH DAKOTA/GRAND FORKS ND
800 PM CDT FRI SEP 22 2017

 **SATELLITE DATA USED TO AUGMENT SKY COVER AT AUTOMATED STATIONS**
 *****  WEATHER ACROSS EASTERN NORTH DAKOTA  *****

CITY           SKY/WX    TMP DP  RH WIND       PRES   REMARKS
GRAND FORKS    MOCLDY    59  55  87 N16G25    29.66F
GRAND FORKS AF LGT RAIN  55  52  88 N23G52    29.71R
GRAND CITY NWS NOT AVBL
BUXTON           N/A     62  55  78 NW16        N/A
DEVILS LAKE    CLOUDY    51  49  92 N16       29.84R
FARGO          FAIR      85  71  63 SE9       29.60F HX  90
WAHPETON ARPT  FAIR      79  63  57 W7        29.66R
$$

 *****  WEATHER ACROSS CENTRAL AND WESTERN NORTH DAKOTA  *****

CITY           SKY/WX    TMP DP  RH WIND       PRES   REMARKS
JAMESTOWN      CLOUDY    55  50  83 NW23G30   29.76R
BISMARCK       CLOUDY    49  47  93 N16G24    29.91R
MINOT          CLOUDY    49  44  83 NW15      29.95S
MINOT AFB      CLOUDY    48  45  87 N17       29.97R
GARRISON         N/A     47  43  86 N21       29.95R
WILLISTON      CLOUDY    47  42  83 N10       30.05R
DICKINSON      NOT AVBL
HETTINGER      CLOUDY    47  37  68 N17       29.99R
$$

 *****  OTHER OBSERVATIONS NORTHEAST NORTH DAKOTA  *****

CITY           SKY/WX    TMP DP  RH WIND       PRES   REMARKS
WALHALLA       LGT RAIN N/A N/A N/A N18G25    29.83R
LANGDON        RAIN      50  50 100 N23       29.83R
CAVALIER       CLOUDY    54  52  94 N20G29    29.79R
GRAFTON        CLOUDY    55  54  94 N23G31    29.75R
CANDO          CLOUDY    50  50 100 N15G23    29.88S
FORT TOTTEN      N/A     52  50  94 N7        29.95S
ROLLA          CLOUDY    46  46 100 N20G29    29.90R
RUGBY          CLOUDY    48  46  93 N15       29.90R
 ***** THE ABOVE OBSERVATIONS ARE NON NWS ARE NOT QUALITY
        CONTROLLED AND MAY MIS-REPORT RAIN FOR SNOW...
$$

 *****  OTHER OBSERVATIONS SOUTHEAST NORTH DAKOTA *****

CITY           SKY/WX    TMP DP  RH WIND       PRES   REMARKS
COOPERSTOWN    CLOUDY    57  52  82 NW16      29.76R
VALLEY CITY    FAIR      59  55  88 NW21G26   29.74R
OAKES          NOT AVBL
GWINNER        CLEAR     68  59  73 NW16      29.69R
SHEYENNE NWR     N/A     79  62  56 W8        29.95S
BUFFALO          N/A     65  54  69 NW12        N/A
WYNDMERE       NOT AVBL
 ***** THE ABOVE OBSERVATIONS ARE NON NWS ARE NOT QUALITY
       CONTROLLED AND MAY MIS-REPORT RAIN FOR SNOW...
$$

  *****  WEATHER ACROSS NORTHERN MINNESOTA  *****

CITY           SKY/WX    TMP DP  RH WIND       PRES   REMARKS
FLAG ISLAND    MOCLDY    64  59  82 SE8G17    29.73S
WARROAD        CLOUDY    66  63  88 NE14      29.72F
ROSEAU         MOCLDY    66  63  88 NE14      29.70F
HALLOCK          N/A     59  55  88 N16       29.71F
THF RVR FALLS  TSTM      70  66  88 N16G30    29.67R
HALSTAD          N/A     73  66  79 N13         N/A
FOSSTON        FAIR      75  70  83 SE9       29.66F
BAUDETTE       CLOUDY    70  68  93 E7        29.72F
WASKISH        FAIR      72  70  94 E8        29.70F
CROOKSTON      FAIR      70  66  88 N9        29.64F
$$
  *****  WEATHER ACROSS CENTRAL AND WEST MINNESOTA  *****

CITY           SKY/WX    TMP DP  RH WIND       PRES   REMARKS
BEMIDJI        FAIR      73  71  93 E8        29.70F
PARK RAPIDS    FAIR      80  73  79 SE10      29.71S
WADENA         FAIR      79  72  78 S7        29.71S
DETROIT LAKES  FAIR      79  72  78 SE8       29.69F
MOORHEAD       FAIR      82  70  65 S10       29.62S
FERGUS FALLS   FAIR      79  70  73 S9        29.65S
ELBOW LAKE     FAIR      79  71  75 SE9       29.68F HAZE
MORRIS MN      FAIR      82  70  65 S12       29.69R
STAPLES        FAIR      79  70  73 S9        29.72S
WHEATON        FAIR      82  63  51 W5        29.68R
$$
  *****  WEATHER ELSEWHERE ACROSS MINNESOTA  *****

CITY           SKY/WX    TMP DP  RH WIND       PRES   REMARKS
DULUTH         FAIR      67  65  93 SE13      29.81S
INTRNTL FALLS  CLOUDY    71  69  93 E3        29.76F
ELY            FAIR      73  70  88 CALM      29.81R
CLOQUET        FAIR      70  64  83 SE6       29.81R
BRAINERD       FAIR      81  71  71 S12       29.74R
HIBBING        FAIR      71  70  96 SE6       29.77S
ALEXANDRIA     FAIR      82  71  69 S12       29.74
SAINT CLOUD    FAIR      83  72  69 S14       29.75R
MINNEAPOLIS    FAIR      88  68  51 S12       29.81R HX  91
$$

  *****  WEATHER ACROSS SOUTH DAKOTA  *****

CITY           SKY/WX    TMP DP  RH WIND       PRES   REMARKS
SIOUX FALLS    MOCLDY    86  69  56 S13       29.74R HX  90
BROOKINGS      MOCLDY    79  70  73 SE12      29.74R
WATERTOWN      FAIR      73  62  68 SW17      29.78R THUNDER
HURON          FAIR      69  58  67 NW13      29.79R
SISSETON         N/A     80  62  54 SW9       29.66R
ABERDEEN       MOCLDY    63  59  87 NW14      29.76R
MITCHELL       FAIR      69  62  78 NW7       29.77F
PIERRE         FAIR      55  45  68 NW23G29   29.81F
MOBRIDGE       CLOUDY    53  46  77 NW17      29.86R
RAPID CITY     CLEAR     54  37  54 N20       29.93R
$$

  *****  SOME WEATHER IN NEARBY STATES *****

CITY           SKY/WX    TMP DP  RH WIND       PRES   REMARKS
GLASGOW MT     CLOUDY    47  39  74 NE5       30.06S
GREAT FALLS MT LGT RAIN  37  34  89 NE5       30.08S
CHEYENNE WY    MOCLDY    56  35  45 N10       29.93R
SCOTTSBLUFF NE FAIR      66  42  41 N6        29.85S
OMAHA NE       MOCLDY    87  67  51 S21G30    29.84R HX  90
DES MOINES IA  FAIR      83  68  60 SE8       29.90S
DAVENPORT IA   FAIR      79  66  64 SE7       30.01R
CHICAGO IL     FAIR      83  65  54 SE9       30.02R
EAU CLAIRE WI  FAIR      83  67  58 S13       29.87F
LA CROSSE WI   FAIR      86  68  54 S8        29.91R
$$

  *****  SOME NATIONAL WEATHER *****

CITY           SKY/WX    TMP DP  RH WIND       PRES   REMARKS
LA GUARDIA NY  MOCLDY    76  55  48 N13G20    29.96R
RALEIGH NC     MOCLDY    75  65  70 CALM      30.03R
ATLANTA GA     FAIR      79  67  66 SE5       30.02R
NEW ORLEANS LA NOT AVBL
OKLAHOMA CITY  FAIR      81  66  60 SE14      29.90S
ALBUQUERQUE NM MOCLDY    81  35  19 SW12      29.86S
SALT LAKE CITY MOCLDY    51  40  65 N10       29.95R
LOS ANGELES CA FAIR      66  54  65 W16       29.81F
BOISE ID       FAIR      51  39  63 CALM      29.97F
SEATTLE WA     PTSUNNY   64  47  53 S5        30.03S
$$

*** WEATHER ACROSS MANITOBA...SASKATCHEWAN AND ONTARIO ***
                ***ONTARIO***

CITY           SKY/WX    TMP DP  RH WIND       PRES   REMARKS
GERALDTON      CLOUDY    66  64  94 S6        29.94S FOG
THUNDER BAY    PTCLDY    61  61 100 NE8       29.88F
SIOUX LOOKOUT  LGT RAIN  70  64  83 E5        29.83S
TORONTO        PTCLDY    72  52  49 VRB2      30.09S
BIG TROUT LK   CLEAR     54  43  66 N5        29.97S
PICKLE LAKE    MOCLDY    64  50  59 NE6       29.91R
DRYDEN         LGT RAIN  68  64  88 E8        29.81F
KENORA         TSTM      64  57  77 NE8       29.78S
$$
                *** MANITOBA***

CITY           SKY/WX    TMP DP  RH WIND       PRES   REMARKS
BRANDON        LGT RAIN  48  46  93 N7        29.98S
DAUPHIN        LGT RAIN  46  46 100 VRB2      30.04R
ISLAND LAKE    MOCLDY    50  43  76 N8        29.97F
PILOT MOUND      N/A     50  46  87 N20G25      N/A
THE PAS        DRIZZLE   46  43  87 N6        30.05R
THOMPSON       CLOUDY    45  41  87 N13       30.07S
WINNIPEG       TSTM      52  50  93 N24G38    29.84R
LYNN LAKE      CLOUDY    41  39  93 NE7       30.12F
CHURCHILL      MOCLDY    41  36  81 N20G28    30.14R
GILLAM         CLOUDY    45  43  93 N16       30.07S
$$
                ***SASKATCHEWAN***

CITY           SKY/WX    TMP DP  RH WIND       PRES   REMARKS
ESTEVAN        LGT RAIN  45  45 100 N7        30.03R
KINDERSLEY     CLOUDY    45  37  76 N5        30.08R
LLOYDMINSTER   MOCLDY    43  39  87 E3        30.08S
PRINCE ALBERT  MOCLDY    45  39  81 N5        30.09S
REGINA         CLOUDY    45  41  87 NW8       30.07R
YORKTON        LGT RAIN  46  43  87 W5        30.05R


USA.gov is the U.S. government's official web portal to all federal, state and local government web resources and services.